Showing default

COSMOS 2518, 42719

Orbit data source: Space-Track

COSMOS 2518, 42719 is a payload satellite owned by VVKO VKS (CIS) that was launched on Thu, 25 May 2017 UTC via a SOYUZ-2-1B launch vehicle from the Plesetsk Missile And Space Complex (PKMTR). Payload-class satellites include a variety of spacecraft equipped with specific instruments for various scientific and technological missions. These include communications satellites like Starlink; space stations such as the ISS; scientific satellites like the Hubble; Earth observation satellites from companies like Planet Labs, Umbra, and HawkEye 360; GPS; miniature CubeSats for education and research; and military/defense satellites.

Loading next visibility...
Identifier
42719, 2017-027A
Orbit
Molniya
Country
Flag of CISCIS
Related business
Manufacturer
RKKE/KOMET
Mission
Operational Defense Early Warn
Bus & Motor
14F142, Unknown motor
Mass
2,550 kg wet, ~2,000 kg dry
Launch date (UTC)
2017-05-25 (8 years ago)
Launch vehicle
SOYUZ-2-1B
Launch site
Plesetsk Missile And Space Complex (PKMTR)
Object type
Payload
Rocket body
Debris
Shape & HBR
Box + 2 Pan, 5.0 m
Radar Cross Section
14.304 m², Large (>1 m²)

Expand to show TLE details & history
Last TLE update: 1 week ago

TLE from 1 week ago
0 COSMOS 2518
1 42719U 17027A   25252.35838788  .00000394  00000-0 -15621-1 0  9999
2 42719  63.0651 283.7467 7123249 272.8843  14.9693  2.00716846 60760
Epoch: 2025-09-09T08:36Z
TLE epoch observation values (Epoch: 2025-09-09T08:36:04.712Z)
Latitude
-0.0001°
Longitude
166.16374°
Altitude
6,278.992 km
Speed
6.926 km/s
True Right ascension
18h 55m 20s
True Declination
0° 00' 00"
Sunlit
Object was in daylight at epoch
Visualization orbit readout
Latitude
Unknown
Longitude
Unknown
Altitude
Unknown
Speed
Unknown
Apparent Right ascension
Unknown
Apparent Declination
Unknown
Sunlit
N/A
Visualization observer readout
Local Sidereal Time
20:42:29
Azimuth
Unknown
Elevation
Unknown
Doppler factor
Unknown
Orbital elements
Apogee altitude
39,077.105 km
Perigee altitude
1,258.464 km
Semi-major axis
26,545.921 km
Eccentricity
0.71232
Inclination
63.0651°
RAAN
283.7467°
Arg. of periapsis
272.8843°
True anomaly
87.11913°
Mean anomaly
14.9693°
Eccentric anomaly
42.58903°
Mean motion
0.50182 °/min
Orbital period
717.39 mins
BSTAR
-0.015621
Loading maneuver chart data...
Computing Atmospheric mass density...
Loading historical data...
Loading historical data...
Loading historical data...
Loading historical data...
Loading historical data...
Loading historical data...
Loading historical data...
Other satellites on launch #27 in the year 2017 (2017-05-25 UTC)

Documentation

Showing up to 5 results
|